Regional Weather Roundup
Issued by NWS

Home | Current Version | Previous Version | Text Only | Print | Product List | Glossary On
Versions: 1 2 3 4 5 6 7 8 9 10 11 12 13 14 15 16 17 18 19 20 21 22 23 24 25 26 27 28 29 30 31 32 33 34 35 36 37 38 39 40 41 42 43 44 45 46 47 48 49 50
000
ASUS43 KLSX 232357
RWRMO

WEATHER SUMMARY FOR MISSOURI
NATIONAL WEATHER SERVICE SPRINGFIELD MO
700 PM CDT TUE AUG 23 2016

NOTE: "FAIR" INDICATES FEW OR NO CLOUDS BELOW 12,000 FEET WITH NO
       SIGNIFICANT WEATHER AND/OR OBSTRUCTIONS TO VISIBILITY.
       CURRENT SKY AND/OR WEATHER CONDITIONS ARE NOT AVAILABLE FOR
       CHILLICOTHE AND FARMINGTON.

MOZ001>031-035>038-043-044-053-054-240100-
...NORTHERN AND WESTERN MISSOURI...

CITY           SKY/WX    TMP DP  RH WIND       PRES   REMARKS
KANSAS CTY INT PTSUNNY   83  70  64 S21G26    29.93F
6HR MIN TEMP:  81; 6HR MAX TEMP:  87; 6HR PCP: TRACE;

LEE`S SUMMIT   MOSUNNY   83  72  69 S15G23    29.97S
6HR MIN TEMP:  80; 6HR MAX TEMP:  86;

ST JOSEPH      SUNNY     84  71  65 S20G25    29.91R
6HR MIN TEMP:  80; 6HR MAX TEMP:  86; 6HR PCP: TRACE;


$$
MOZ066>068-077>081-088>096-101>105-240100-
...SOUTHWEST MISSOURI...

CITY           SKY/WX    TMP DP  RH WIND       PRES   REMARKS
SPRINGFIELD    CLOUDY    82  69  64 S13       30.04F
6HR MIN TEMP:  80; 6HR MAX TEMP:  86;

JOPLIN         SUNNY     83  71  67 S15       30.00F
6HR MIN TEMP:  80; 6HR MAX TEMP:  86; 6HR PCP: TRACE;

BRANSON        PTCLDY    81  72  74 S6        30.09F

$$
MOZ032>034-039>042-045>050-055>058-069>072-240100-
...CENTRAL MISSOURI...

CITY           SKY/WX    TMP DP  RH WIND       PRES   REMARKS
COLUMBIA       NOT AVBL
JEFFERSON CITY PTCLDY    77  74  90 SE6       30.03F
6HR MIN TEMP:  73; 6HR MAX TEMP:  77; 6HR PCP:  0.11;

ROLLA          CLOUDY    76  73  91 SE8       30.07F
6HR MIN TEMP:  74; 6HR MAX TEMP:  76; 6HR PCP:  0.03;

SEDALIA        MOCLDY    82  74  76 S16       30.02F
6HR MIN TEMP:  74; 6HR MAX TEMP:  83; 6HR PCP:  0.08;


$$
MOZ051-052-059>065-240100-
...EAST CENTRAL MISSOURI...

CITY           SKY/WX    TMP DP  RH WIND       PRES   REMARKS
ST LOUIS INTL  CLOUDY    77  69  76 SE12      30.10F
6HR MIN TEMP:  75; 6HR MAX TEMP:  78; 6HR PCP: TRACE;


$$
MOZ072>076-082>087-097>100-106>115-240100-
...SOUTH CENTRAL AND SOUTHEAST MISSOURI...

CITY           SKY/WX    TMP DP  RH WIND       PRES   REMARKS
CAPE GIRARDEAU CLOUDY    80  73  79 S7        30.12F
6HR MIN TEMP:  78; 6HR MAX TEMP:  84;

FARMINGTON     MOCLDY    75  73  94 SE6       30.13F
POPLAR BLUFF   CLOUDY    81  75  82 S5        30.11F
6HR MIN TEMP:  77; 6HR MAX TEMP:  84; 6HR PCP: TRACE;

WEST PLAINS    CLOUDY    82  70  66 S9        30.12F
6HR MIN TEMP:  76; 6HR MAX TEMP:  84; 6HR PCP:  0.05;


$$



USA.gov is the U.S. government's official web portal to all federal, state and local government web resources and services.